Weather in Kostroma

Russia / Kamchatka Krai     59°02′23″N   163°09′57″E
temp.,
°C
wind,
m/s
gust,
m/s
humid.,
%
clouds,
%
prec.,
mm/h
press.,
hPa
HPBL,
m
2 march, tue
tue200:00−19n4778100 0.1 998265
03:00−20nnw3479100 0.0 1000140
06:00−22nnw3379100 0.0 100320
09:00−23nw347879 0.0 100721
12:00−20nw237352 0.0 1010129
15:00−17nnw237283 0.0 1013265
18:00−19sw227774 0.0 101720
21:00−20w337631 0.0 102020
3 march, wed
wed300:00−19wsw337165 0.0 102325
03:00−21sw337258 0.0 102420
06:00−22sw127329 0.0 102420
09:00−20nnw117391 0.0 102320
12:00−17nne447595 0.0 1019228
15:00−13nne7996100 1.1 1013344
18:00−7ene71394100 5.3 1002672
21:00−4ne121795100 7.9 990559
4 march, thu
thu400:00−10wnw91295100 16.8 980183
03:00−9wnw3594100 3.1 977194
06:00−10wsw91371100 3.1 978269
09:00−13w111565100 0.0 982403
12:00−15wsw121663100 0.0 985902
15:00−16wsw132060100 0.0 9861226
18:00−17wsw12216650 0.0 987701
21:00−18wsw1222660 0.0 988821
5 march, fri
fri500:00−18sw1121680 0.0 988752
03:00−18wsw13236510 0.0 989895
06:00−19wsw12226731 0.0 990851
09:00−20wsw132167100 0.0 9921061
12:00−20wsw132160100 0.0 9951252
15:00−17wsw9186546 0.0 9981519
18:00−19sw696524 0.0 999107
21:00−23w44740 0.0 100022
6 march, sat
sat600:00−26n558012 0.0 100048
03:00−27nne568663 0.0 100079
06:00−29nne449536 0.0 100134
09:00−28ne229471 0.0 100250
12:00−25nne118486 0.0 1003183
15:00−24n2280100 0.0 1003196
18:00−26nne338762 0.0 100319
21:00−27nne33870 0.0 100419